Regional Weather Roundup
Issued by NWS Upton, NY

Current Version | Previous Version | Graphics & Text | Print | Product List | Glossary Off
Versions: 1 2 3 4 5 6 7 8 9 10 11 12 13 14 15 16 17 18 19 20 21 22 23 24 25 26 27 28 29 30 31 32 33 34 35 36 37 38 39 40 41 42 43 44 45 46 47 48 49

000
ASUS41 KOKX 161105
RWROKX

REGIONAL WEATHER ROUNDUP
NATIONAL WEATHER SERVICE NEW YORK NY
700 AM EDT TUE SEP 16 2014

NOTE: "FAIR" INDICATES FEW OR NO CLOUDS BELOW 12,000 FEET WITH NO
SIGNIFICANT WEATHER AND/OR OBSTRUCTIONS TO VISIBILITY.

NYZ071-072-176-178-NJZ106-104-161200-
NEW YORK CITY METRO AREA


CITY           SKY/WX    TMP DP  RH WIND       PRES   REMARKS
CENTRAL PARK   MOCLDY    62  53  72 CALM      30.02S
LAGUARDIA APRT MOCLDY    63  54  72 CALM      30.00S
KENNEDY INTL   MOCLDY    62  55  77 SW5       30.01S
NEWARK/LIBERTY MOCLDY    62  55  77 CALM      30.00S
BRNX BOT. GARD   N/A     57  54  88 CALM      30.01F
TETERBORO      CLOUDY    59  53  80 CALM      29.99R
$$

NYZ177-179-078>081-161200-
LONG ISLAND NEW YORK

CITY           SKY/WX    TMP DP  RH WIND       PRES   REMARKS
FARMINGDALE    PTCLDY    57  53  86 W3        30.01F
ISLIP          MOCLDY    55  51  86 E3        29.99F
SHIRLEY        CLEAR     51  49  92 E5        30.02F
WESTHAMPTON    MOCLDY    50  47  89 CALM      30.05S
MONTAUK POINT    N/A     54  51  90 CALM      30.05F
$$

NYZ052-065-067-161200-
HUDSON VALLEY

CITY           SKY/WX    TMP DP  RH WIND       PRES   REMARKS
WHITE PLAINS   MOCLDY    56  53  90 CALM      30.00F
NEWBURGH       DRIZZLE   54  52  94 N8        30.02S
MONTGOMERY     LGT RAIN  54  51  90 CALM      30.01S
POUGHKEEPSIE   LGT RAIN  56  53  90 NW5       30.01R
ALBANY         LGT RAIN  53  51  93 E3        30.03S
$$

NJZ001-105-106-008-010-013-015-019>022-104-161200-
NEW JERSEY

CITY           SKY/WX    TMP DP  RH WIND       PRES   REMARKS
NEWARK/LIBERTY MOCLDY    62  55  77 CALM      30.00S
TETERBORO      CLOUDY    59  53  80 CALM      29.99R
CALDWELL       LGT RAIN  54  50  86 CALM      30.00F
MORRISTOWN     CLOUDY    54  52  94 CALM      30.01S
SOMERVILLE     CLOUDY    53  50  89 NW5       30.00R
LINDEN         CLOUDY    63  57  82 CALM      30.01F
SUSSEX         HVY RAIN  54  51  90 NE3       30.02R FOG
ANDOVER          N/A     52  51  97 CALM      30.03R
TRENTON        RAIN      57  55  93 CALM      30.00R FOG
MILLVILLE      CLOUDY    61  59  93 CALM      30.00R
ATLANTIC CITY  CLOUDY    64  59  83 S6        30.00S
WRIGHTSTOWN    LGT RAIN  58  56  94 S7        29.98R
TOMS RIVER     CLOUDY    54  52  94 CALM      30.00F
BELMAR         MOCLDY    59  52  77 SE6       29.99F
$$

PAZ047>061-062-071-161200-
EASTERN PENNSYLVANIA

CITY           SKY/WX    TMP DP  RH WIND       PRES   REMARKS
PHILADELPHIA   LGT RAIN  62  59  90 W3        30.00R
ALLENTOWN      CLOUDY    55  52  89 CALM      30.01S
SCRANTON       LGT RAIN  54  51  90 E5        30.01F
$$

CTZ002-004>006-009-010-012-RIZ004-006-007-MAZ004-011-015-161200-
SOUTHERN NEW ENGLAND
 IN CT

CITY           SKY/WX    TMP DP  RH WIND       PRES   REMARKS
BRADLEY INTL   CLOUDY    52  49  89 CALM      30.03F
HARTFORD       MOCLDY    54  51  90 SE7       30.03F
DANBURY        MOCLDY    52  50  93 CALM      30.03F
WTRBRY/OXFORD  MOCLDY    52  46  82 SE5       30.04F
BRIDGEPORT     PTCLDY    58  53  84 NE5       30.01F
MERIDEN        MOCLDY    51  48  89 CALM      30.03F
NEW HAVEN      MOCLDY    55  49  80 N3        30.02F
CHESTER        PTSUNNY   52  50  93 CALM      30.04S
GROTON         MOCLDY    52  51  97 N5        30.03F
WILLIMANTIC    CLOUDY    50  47  89 MISG      30.05F

 IN RI

CITY           SKY/WX    TMP DP  RH WIND       PRES   REMARKS
PROVIDENCE     CLOUDY    54  50  86 CALM      30.06S
BLOCK ISLAND   MOCLDY    57  46  67 CALM      30.05S
WESTERLY       CLOUDY    51  48  89 N3        30.05S

 IN MA

CITY           SKY/WX    TMP DP  RH WIND       PRES   REMARKS
BOSTON         CLOUDY    56  50  80 N3        30.05S
WORCESTER      CLOUDY    53  46  77 CALM      30.05S
WESTFIELD      CLOUDY    52  49  89 N3        30.03F
PROVINCETOWN   CLOUDY    59  48  67 S5        30.06S
NANTUCKET      CLOUDY    58  51  78 SE6       30.05S
$$

ANZ330-335-338-340-345-350-353-355-161200-
COASTAL MARINE OBSERVATIONS


STATION/POSITION TIME  SKY/WX   TEMP    WIND        PRES    VSBY  WAVE
                                AIR SEA DIR/SP/G                  HT/PER
                 (UTC)          (F)     (DEG/KT/KT) (MB)    (MI)  (FT/S)
NY HARB ENTRANCE NOT AVBL
4S FIRE IS       NOT AVBL
23SW MTP         1100                                 N/A           1/ 7
HUDSON CANYON    1100            67 74   60/  2/  4 1016.9          2/ 7
EXECUTION ROCKS  1100            64 71  130/  6/  8   N/A
WESTERN LI SOUND 1100            64     120/  4/  6   N/A           0
CENTRAL LI SOUND 1000            65 71  200/  8/ 10   N/A           1/ 3
EASTERN LI SOUND 1000            61 68   40/  6/  8   N/A
ROBBINS REEF     1000            63     190/  5/  5   N/A
$$


>>>>>>>>>>>>>>>>>>>>>>>>>>>> KEY <<<<<<<<<<<<<<<<<<<<<<<<<<<
>                                                          <
>     SKY/WX - SKY CONDITION/PRESENT WEATHER               <
>     TMP    - TEMPERATURE IN FAHRENHEIT                   <
>     DP     - DEWPOINT IN FAHRENHEIT                      <
>     RH     - RELATIVE HUMIDITY IN PERCENT                <
>     WIND   - DIRECTION AND SPEED IN MPH                  <
>     PRES   - MEAN SEA LEVEL PRESSURE IN INCHES OF HG     <
>     WCI    - WIND CHILL INDEX                            <
>     VSB    - VISIBILITY IN MILES                         <
>     HX     - HEAT INDEX                                  <
>     TC     - TEMPERATURE IN CELSIUS                      <
>     VRB    - VARIABLE WIND DIRECTION                     <
>                                                          <
>>>>>>>>>>>>>>>>>>>>>>>>>>>> KEY <<<<<<<<<<<<<<<<<<<<<<<<<<<




USA.gov is the U.S. government's official web portal to all federal, state and local government web resources and services.